Regional Weather Roundup
Issued by NWS Sterling, VA

Home | Current Version | Previous Version | Text Only | Print | Product List | Glossary On
Versions: 1 2 3 4 5 6 7 8 9 10 11 12 13 14 15 16 17 18 19 20 21 22 23 24 25 26 27 28 29 30 31 32 33 34 35 36 37 38 39 40 41 42 43 44 45 46 47 48 49 50
000
ASUS41 KLWX 290310
RWRLWX

REGIONAL WEATHER ROUNDUP
NATIONAL WEATHER SERVICE BALTIMORE MD/WASHINGTON DC
1100 PM EDT WED SEP 28 2016

Note: "FAIR" indicates few or no clouds below 12,000 feet
with no significant weather and/or obstructions to visibility.
 TC=TEMPERATURE CELSIUS

 * =Non NWS site. Station does not report precipitation (e.g. rain,
    snow, etc.), thunder, or fog.

DCZ001-MDZ009-015-VAZ040>042-051-053>054-290400-
WASHINGTON METRO

CITY           SKY/WX    TMP DP  RH WIND       PRES   REMARKS
WASHINGTON NAT LGT RAIN  70  68  93 E10       30.04R
DULLES         LGT RAIN  67  65  93 E16G30    30.01F
ANDREWS AFB    CLOUDY    68  66  94 E12G20    30.03R
FT BELVOIR     CLOUDY    70  66  88 VRB5      30.03R
QUANTICO       LGT RAIN  71  68  90 SE14      30.02R
COLLEGE PARK*  CLOUDY    64  63  94 E10       30.04F
LEESBURG*      LGT RAIN  68  68 100 SE13G18   30.03R
MANASSAS*      CLOUDY    70  70 100 E13G20    30.00S
GAITHERSBURG*  CLOUDY    64  61  88 E9        30.09S

$$

MDZ006>007-011-014-290400-
BALTIMORE METRO

CITY           SKY/WX    TMP DP  RH WIND       PRES   REMARKS
BWI AIRPORT    RAIN      66  64  93 E16       30.07S
MD SCIENCE CTR   N/A     66  63  90 MISG      30.07F
ANNAPOLIS      RAIN      72  67  84 E17G25    30.04F
FORT MEADE*    CLOUDY    64  63  94 E8G16     30.08S

$$

MDZ012-015-019>023-290400-
MARYLAND EASTERN SHORE

CITY           SKY/WX    TMP DP  RH WIND       PRES   REMARKS
OCEAN CITY     CLOUDY    72  68  87 E21G32    30.07R
SALISBURY      LGT RAIN  70  68  93 E12G24    30.06F
BAY BRIDGE AP* RAIN      68  66  94 MISG      30.05F FOG
CAMBRIDGE*     CLOUDY    68  66  94 E9        30.07S

$$

MDZ017>025-290400-
SOUTHERN MARYLAND

CITY           SKY/WX    TMP DP  RH WIND       PRES   REMARKS
PATUXENT RIVER TSTM      70  68  93 E18G29    30.04F FOG
ST INIGOES     TSTM      71  69  93 E13       30.03F FOG
LEONARDTOWN*   CLOUDY    68  66  94 E10G22    30.05R

$$

MDZ003>005-290400-
NORTH CENTRAL MARYLAND

CITY           SKY/WX    TMP DP  RH WIND       PRES   REMARKS
FREDERICK*     NOT AVBL
HAGERSTOWN APT LGT RAIN  66  61  84 E9        30.06R

$$

MDZ501>502-290400-
WESTERN MARYLAND

CITY           SKY/WX    TMP DP  RH WIND       PRES   REMARKS
OAKLAND*       FOG       55  55 100 E16G24    30.05S VSB 1/4
CUMBERLAND*    CLOUDY    64  61  88 NW3       30.08S

$$

VAZ025>031-290400-
SHENANDOAH VALLEY

CITY           SKY/WX    TMP DP  RH WIND       PRES   REMARKS
WINCHESTER*    RAIN      66  64  94 CALM      30.03S
FRONT ROYAL*   CLOUDY    63  63 100 CALM      30.02R
LURAY*         LGT RAIN N/A N/A N/A NE5       30.01R
NEW MARKET*    CLOUDY   N/A N/A N/A NE3       30.00S
STAUNTON*      LGT RAIN  64  62  93 NW5       30.02F
WAYNESBORO*    CLOUDY    64  63  96 CALM      30.01S

$$

WVZ021-048>050-054>055-290400-
EASTERN WEST VIRGINIA PANHANDLE

CITY           SKY/WX    TMP DP  RH WIND       PRES   REMARKS
MARTINSBURG    HVY RAIN  65  64  97 E5        30.05R FOG
PETERSBURG*    CLOUDY    66  62  86 CALM      30.02R

$$

VAZ036>039-050-290400-
CENTRAL FOOTHILLS

CITY           SKY/WX    TMP DP  RH WIND       PRES   REMARKS
CHARLOTTESVILL CLOUDY    67  65  93 N6        29.99S
CULPEPER*      CLOUDY    69  69  98 CALM      30.01S
ORANGE*        LGT RAIN  68  68 100 NE5       30.01R
GORDONSVILLE*  CLOUDY    68  68 100 NE5       29.98S
WARRENTON*     CLOUDY    69  64  84 E10       29.99R

$$

VAZ055>057-290400-
NORTH AND CENTRAL PIEDMONT

CITY           SKY/WX    TMP DP  RH WIND       PRES   REMARKS
FREDERICKSBRG* LGT RAIN  69  69 100 SE10G17   30.00R
STAFFORD*      LGT RAIN  69  69 100 E13G18    30.05R

$$

NCZ024-NYZ072-PAZ021-071-VAZ022-071-290400-
OTHER REGIONAL OBSERVATIONS

CITY           SKY/WX    TMP DP  RH WIND       PRES   REMARKS
NEW YORK CITY  CLOUDY    57  54  89 VRB6      30.28R FOG
PHILADELPHIA   LGT RAIN  62  60  93 E20G28    30.16S
PITTSBURGH     CLOUDY    63  57  81 E8        29.97S
ROANOKE        RAIN      64  62  93 NE6       29.99R
RICHMOND       LGT RAIN  66  65  96 E7        30.01R
RALEIGH        CLOUDY    71  67  87 NW6       30.01R THUNDER

$$

ANZ530>537-290400-
MARINE OBSERVATIONS

STATION/POSITION TIME  TEMP    WIND        PRES
                       AIR SEA DIR/SP/G
                 (UTC) (F)     (DEG/KT/KT) (MB)
THOMAS PT LIGHT  0300   69 73  100/ 28/ 31 1017.5F
BALT KEY BRIDGE  0242   67      70/ 18/ 23 1018.0F
COVE POINT       0242   70     120/ 22/ 25 1017.7F
LEWISETTA        0242   69 73  120/ 17/ 18 1016.3F
SOLOMONS ISLAND  0242   71 75   90/ 23/ 25   N/A
PINEY POINT      0248          110/ 17/ 19   N/A

$$




USA.gov is the U.S. government's official web portal to all federal, state and local government web resources and services.